SCP
-0 -0 0 0 0 0 0 0 0 0 0 0 0 0 0 0 0 0 0 0 0 0 0 0 0 0 0 0 0 0 0 0 0 0 0 0 0 0 0 0 0 0 0 0 0 0 0 0 0 0 0 0 0 0
-0 0 0 0 0 0 0 0 0 0 0 -0 -0 -0 0 0 0 0 0 0 0 0 0 0 0 0 0 0 0 0 0 0 0 0 0 0 0 0 0 0 0 0 0 0 0 0 0 0 0 0 0 0 0 0
0 0 0 0 0 0 0 0 0 0 0 -0 -0 0 0 0 0 0 0 0 0 0 0 0 0 0 0 0 0 0 0 0 0 0 0 0 0 0 0 0 0 0 0 0 0 0 0 0 0 0 0 0 0 0
0 0 0 0 0 0 0 0 0 -0 0 -0 0 0 0 0 0 0 0 0 0 0 0 0 0 0 0 0 0 0 0 0 0 0 0 0 0 0 0 0 0 0 0 0 0 0 0 0 0 0 0 0 0 0
-0 0 0 0 0 0 0 0 0 0 0 -0 0 0 0 0 0 0 0 0 0 0 0 0 0 0 0 0 0 0 0 0 0 0 0 0 0 0 0 0 0 0 0 0 0 0 0 0 0 -0 0 0 0 0
0 0 0 0 0 0 0 0 -0 -0 0 -0 0 -0 0 0 0 0 -0 0 0 0 0 0 0 0 0 0 0 0 0 0 0 0 0 0 0 0 0 0 0 0 0 0 0 0 0 0 0 0 0 0 0 0
0 0 0 0 0 0 0 0 0 0 -0 -0 0 -0 -0 -0 0 0 0 0 0 0 0 -0 0 0 0 0 0 0 0 0 0 0 0 0 0 0 0 -0 0 0 0 0 0 0 0 0 0 0 0 0 0 0
0 0 0 0 0 0 0 0 0 0 -0 -0 -0 -0 -0 -0 0 0 0 0 0 0 0 -0 -0 0 0 0 0 0 0 0 0 0 0 0 0 0 0 -0 -0 0 0 0 0 0 0 0 0 0 0 0 0 0
0 0 0 0 0 0 0 -0 0 0 -0 0 0 0 -0 -0 -0 0 0 0 0 0 0 0 0 0 0 0 0 0 0 0 0 0 0 0 0 0 0 0 0 0 0 0 0 0 0 0 0 0 0 0 0 0
-0 0 0 0 0 0 0 -0 -0 0 0 0 0 -0 -0 -0 0 0 0 0 0 0 0 0 0 0 0 0 0 0 0 0 0 0 0 0 0 0 0 0 0 0 0 0 0 0 0 0 0 0 0 0 0 0
-0 -0 -0 0 0 -0 -0 -0 -0 0 0 0 0 -0 -0 -0 -0 0 0 0 0 0 0 0 0 0 0 0 0 0 0 0 0 0 0 0 0 0 0 0 0 0 0 0 0 0 0 0 0 0 0 0 0 0
-0 -0 -0 0 -0 -0 -0 -0 -0 0 0 0 0 0 0 -0 0 0 0 0 0 0 0 0 0 0 0 0 0 0 0 0 0 0 0 0 -0 0 0 0 0 0 0 -0 0 0 0 0 0 0 0 0 0 0
-0 -0 0 -0 -0 -0 -0 -0 0 -0 0 0 0 0 -0 -0 0 0 0 0 0 0 0 0 0 0 0 0 0 0 0 0 0 0 0 0 0 0 0 0 0 -0 0 0 0 0 0 0 0 0 0 0 0 0
0 0 -0 -0 -0 -0 -0 0 -0 0 0 0 0 0 -0 0 0 0 0 0 0 0 0 0 0 0 0 0 0 0 0 0 0 0 0 0 0 -0 0 0 0 0 0 0 0 0 0 0 0 0 0 0 0 0
-0 -0 -0 0 -0 -0 0 0 0 0 0 0 0 0 0 0 0 0 0 0 0 0 0 0 0 0 0 0 0 0 0 0 0 0 0 -0 -0 0 0 0 0 0 -0 0 0 0 0 0 0 0 0 0 0 0
-0 0 0 0 -0 -0 -0 0 0 0 0 0 0 0 0 0 0 0 0 0 0 0 0 0 0 0 0 0 0 0 0 0 0 0 -0 0 0 0 0 0 0 0 0 0 0 0 0 0 0 0 0 0 0 0
0 0 -0 -0 -0 -0 0 0 0 0 -0 0 -0 0 0 0 0 0 0 0 -0 0 0 0 0 0 0 0 0 0 0 0 0 0 0 0 0 0 0 0 0 -0 -0 -0 -0 -0 -0 -0 0 0 0 0 0 0
-0 -0 -0 -0 0 0 0 -0 -0 -0 0 0 0 0 0 0 0 0 0 0 -0 -0 -0 -0 0 0 0 0 0 0 0 0 -0 0 0 0 0 0 0 0 -0 0 0 0 -0 -0 0 0 0 0 0 0 0 0
0 0 -0 -0 -0 -0 -0 -0 -0 -0 -0 -0 0 0 0 0 0 0 0 0 0 0 -0 -0 0 0 0 0 -0 -0 -0 0 -0 0 0 0 -0 -0 0 0 0 0 0 0 0 0 0 0 -0 0 0 0 0 0
-0 -0 -0 -0 -0 -0 -0 -0 -0 0 0 0 0 0 0 0 0 0 0 0 0 0 -0 -0 0 -0 0 0 -0 0 0 0 -0 -0 -0 0 0 0 0 0 0 0 0 0 0 0 0 0 0 0 0 0 0 0
0 0 0 0 -0 -0 -0 -0 -0 -0 0 0 0 0 0 -0 -0 -0 -0 -0 0 0 -0 -0 -0 -0 -0 -0 -0 -0 0 0 0 0 0 0 0 0 0 0 0 0 0 0 0 0 0 0 0 0 0 0 0 0
0 0 0 0 -0 -0 0 0 0 0 0 0 0 0 0 0 0 -0 0 0 -0 -0 -0 -0 -0 -0 -0 -0 0 0 0 0 0 0 0 0 0 0 0 0 0 0 0 0 0 0 0 0 0 0 0 0 0 0
-0 -0 -0 -0 -0 0 0 0 0 0 0 0 0 0 0 0 0 0 -0 -0 -0 -0 0 0 0 -0 -0 0 0 0 0 0 0 0 0 0 0 0 0 0 0 0 0 0 0 0 0 -0 0 0 0 0 0 0
0 0 0 -0 0 0 0 0 0 0 0 0 0 0 0 0 0 0 0 0 0 0 0 0 0 0 0 0 0 0 0 0 0 0 0 0 0 0 0 0 0 0 0 0 0 0 0 0 0 0 0 0 0 0
0 0 0 0 0 0 0 0 0 0 0 0 0 0 0 0 0 0 0 0 0 0 0 0 0 0 0 0 0 0 0 0 0 0 0 0 0 0 0 0 -0 -0 -0 0 0 0 0 0 0 0 0 0 0 0
0 0 0 0 0 0 0 0 0 0 0 0 0 0 0 0 0 0 0 0 0 0 0 0 0 0 0 0 0 0 0 0 0 0 0 0 0 0 -0 -0 -0 -0 0 0 0 0 0 0 0 0 0 0 0 0
0 0 0 0 0 0 0 0 0 0 0 0 0 0 0 0 0 0 0 0 0 0 0 0 0 0 0 0 0 0 0 0 0 0 0 0 -0 -0 -0 -0 0 0 0 0 0 0 0 0 0 0 0 0 0 0
0 0 0 0 0 0 0 0 0 0 0 0 0 0 0 0 0 0 0 0 0 0 0 0 0 0 0 0 0 0 0 0 0 0 -0 -0 -0 -0 -0 -0 0 -0 0 0 0 0 0 0 0 0 0 0 0 0
0 0 0 0 0 0 0 0 0 0 0 0 0 0 0 0 0 0 0 0 0 0 0 0 0 0 0 0 0 0 0 -0 -0 -0 -0 -0 -0 -0 0 0 0 0 0 0 0 0 0 0 0 0 0 0 0 0
0 0 0 0 0 0 0 0 0 0 0 0 0 0 0 0 0 0 0 0 0 0 0 0 0 0 0 0 0 -0 -0 -0 -0 0 -0 0 -0 -0 -0 0 0 -0 0 0 0 0 0 0 0 0 0 0 0 0
0 0 0 0 0 0 0 0 0 0 0 0 0 0 0 0 0 0 0 0 0 0 0 0 0 0 0 0 0 0 -0 -0 -0 -0 -0 -0 -0 0 0 -0 -0 -0 0 0 0 0 0 0 0 0 0 0 0 0
0 0 0 0 0 0 0 0 0 0 0 0 0 0 0 0 0 0 0 0 0 0 0 0 0 0 0 0 0 -0 -0 -0 -0 -0 -0 0 0 0 0 0 0 0 0 0 0 0 0 0 0 0 0 0 0 0
0 0 0 0 0 0 0 0 0 0 0 0 0 0 0 0 0 0 0 0 0 0 0 0 0 0 0 -0 -0 -0 -0 -0 -0 -0 -0 0 0 0 0 0 0 0 0 0 0 0 0 0 0 0 0 -0 -0 -0
Wind_Speed_500mb
82 80 66 59 56 49 48 46 47 52 60 61 56 58 62 58 61 48 69 50 54 53 46 68 56 28 35 49 15 23 17 6 5 9 7 8 7 14 7 8 14 16 17 9 7 4 20 29 12 15 9 8 8 20
81 77 62 56 52 50 49 54 60 67 70 69 67 67 67 67 61 57 63 58 57 60 46 44 79 71 61 57 59 62 16 23 27 7 4 6 5 3 8 7 6 8 15 13 21 17 4 52 16 50 7 8 10 15
78 75 60 59 55 56 60 65 74 81 85 80 75 72 66 65 63 58 63 58 54 54 64 77 71 59 67 64 44 26 18 28 26 18 10 6 7 8 9 11 9 9 16 6 6 14 33 50 63 68 52 54 55 55
73 70 64 59 56 57 62 66 77 76 60 61 57 56 58 62 63 60 65 63 43 22 14 33 56 82 65 76 56 50 22 50 40 29 7 6 6 16 7 5 8 9 22 11 13 17 41 64 68 60 55 57 55 53
73 69 68 58 58 53 56 62 52 30 19 22 22 34 46 51 51 46 55 76 60 56 9 12 51 67 63 63 82 58 42 54 31 10 5 7 9 8 2 4 6 17 15 12 13 29 19 33 27 30 37 45 47 44
79 72 67 60 56 50 48 47 31 20 21 34 25 22 45 32 31 39 32 89 88 84 39 10 11 39 70 59 50 45 54 55 35 21 8 9 12 17 7 7 12 54 58 61 26 52 57 74 74 61 64 72 69 56
83 81 68 65 52 46 43 30 22 25 20 13 11 18 18 27 23 35 28 30 70 85 33 5 3 11 41 47 39 39 56 30 21 16 9 14 10 16 4 17 10 32 54 69 75 75 68 88 62 61 51 42 40 41
89 81 75 66 54 45 42 36 26 25 19 20 19 20 19 26 38 46 29 31 86 66 27 7 4 8 34 15 11 25 21 18 15 14 13 6 11 5 10 13 54 70 69 90 95 88 98 94 91 99 90 83 75 74
98 83 76 67 58 47 41 33 25 21 20 20 19 22 30 15 15 31 36 62 92 32 12 9 14 9 21 12 15 10 14 6 7 4 4 18 5 13 15 28 56 73 55 78 67 45 51 67 75 87 76 68 67 69
84 79 73 67 60 50 37 32 26 22 17 18 15 9 9 9 31 44 7 14 26 26 10 4 15 6 19 7 4 5 7 5 4 5 17 5 8 18 25 38 69 69 62 79 71 64 72 79 85 93 91 77 75 75
53 62 67 66 61 52 39 34 27 19 14 8 5 7 13 20 17 11 5 4 7 7 11 9 8 12 10 7 6 2 5 5 8 7 9 5 9 14 72 84 100 111 105 99 92 100 100 89 86 85 86 76 72 65
34 45 58 61 66 55 47 37 28 19 4 2 7 13 10 5 5 7 8 5 6 6 5 6 6 14 14 11 8 3 5 3 5 9 4 8 11 58 52 61 77 83 74 73 64 72 71 71 66 65 67 64 65 61
26 37 54 55 70 60 47 38 24 12 4 2 6 6 9 5 6 3 7 4 2 1 12 14 6 12 11 9 8 5 6 5 6 4 8 12 12 29 45 48 40 27 34 44 55 57 58 56 54 58 64 61 57 57
20 37 40 62 61 56 47 33 25 14 4 2 5 10 5 9 6 7 7 5 4 7 23 20 6 5 9 6 5 9 1 4 4 3 14 6 22 36 33 17 24 20 26 28 30 33 37 42 47 46 48 46 44 49
14 18 48 67 55 47 37 32 24 12 4 6 3 6 8 9 5 10 2 3 9 18 24 10 10 7 4 8 6 9 6 7 11 10 8 21 30 25 21 16 13 16 22 26 31 36 37 39 40 38 32 37 36 39
50 47 46 44 39 36 33 29 21 9 1 3 6 6 7 6 6 0 4 6 11 16 14 6 4 3 4 10 8 12 15 12 8 8 26 18 13 6 9 10 12 20 27 31 34 36 35 36 37 37 30 29 37 40
23 37 32 32 29 32 29 21 8 7 8 8 7 25 29 23 15 12 14 4 12 6 3 4 4 5 3 5 4 10 10 7 9 7 11 8 10 8 10 15 21 24 26 29 30 32 32 30 30 30 27 23 20 25
36 29 25 25 28 27 19 11 6 8 10 19 6 16 16 24 17 14 12 10 5 9 8 4 4 5 7 11 8 8 20 11 17 3 5 7 1 5 11 15 19 22 24 24 24 26 25 21 18 19 18 14 8 5
23 22 21 19 20 11 6 13 16 8 27 19 26 32 29 29 40 36 19 14 6 1 10 2 2 7 8 4 5 13 6 8 10 9 6 8 4 6 11 15 19 20 19 17 18 19 21 21 24 25 24 22 21 22
12 15 13 11 11 7 8 10 19 14 6 17 36 30 27 24 41 44 39 36 30 1 6 5 4 2 7 15 21 25 25 23 22 17 8 3 3 4 10 10 12 14 13 14 17 20 19 22 28 32 31 29 24 31
23 24 23 25 21 22 12 12 14 11 10 13 14 24 14 22 24 26 19 35 8 7 1 5 11 17 14 14 15 17 15 12 14 15 8 10 2 5 8 7 10 10 12 19 23 27 29 37 38 35 34 36 33 33
25 19 20 31 21 15 19 21 14 7 9 9 11 19 8 7 9 12 27 13 8 6 4 4 7 11 9 6 7 4 5 3 4 10 14 9 5 6 10 13 14 19 21 25 26 30 34 34 32 34 37 41 40 44
17 15 10 14 16 12 9 12 9 8 5 5 7 6 4 5 13 25 7 9 6 11 7 5 9 14 16 12 10 12 15 18 24 26 25 22 20 21 21 23 24 26 29 30 28 29 32 30 30 34 38 40 42 47
25 10 9 8 15 7 4 7 8 6 7 5 4 4 4 6 22 8 7 5 9 14 9 5 5 10 12 14 22 25 25 27 30 33 34 31 32 34 33 36 36 36 35 33 31 34 35 36 36 39 41 44 48 52
9 5 6 4 4 5 6 4 3 4 5 2 4 2 4 3 6 7 5 1 4 16 19 20 18 17 17 20 25 26 23 22 27 33 37 35 37 38 40 40 40 40 32 31 38 40 44 42 43 45 47 48 51 55
4 8 4 3 5 4 5 5 5 5 5 3 5 8 6 6 9 5 1 1 2 11 16 22 24 26 26 22 22 26 27 27 32 39 38 32 32 33 39 42 44 44 35 30 33 39 44 45 49 53 58 57 57 58
6 6 7 7 7 9 8 6 8 5 8 7 7 9 3 9 7 1 2 8 6 10 15 17 18 26 36 37 36 32 27 27 37 44 42 38 38 37 38 43 48 46 36 31 35 40 49 54 57 59 63 62 61 60
6 8 7 16 6 11 5 6 7 6 5 11 5 14 7 7 4 1 4 8 12 16 17 15 16 23 31 34 33 31 34 39 42 46 47 49 47 46 45 48 48 42 42 43 46 50 53 58 62 66 67 68 63 56
7 14 7 2 7 12 6 7 6 7 14 8 4 6 6 8 9 11 14 16 20 20 18 18 19 22 22 17 13 15 17 20 29 45 54 57 52 50 48 50 50 51 52 56 56 57 61 63 63 63 63 62 60 56
11 22 5 7 9 9 9 13 10 16 21 18 17 28 25 27 35 31 26 25 25 26 26 24 24 22 23 22 27 28 30 32 30 35 55 57 58 53 48 51 54 56 56 58 63 64 60 60 60 60 59 58 54 52
19 12 2 10 7 10 25 30 37 35 23 33 44 33 21 19 37 43 36 29 26 25 29 34 33 32 32 32 32 36 41 38 37 44 54 59 58 55 54 55 57 57 56 56 57 57 58 58 57 56 55 54 51 48
16 11 5 5 4 9 2 5 9 11 8 9 12 11 10 11 12 14 24 22 21 30 34 32 35 41 40 43 46 48 50 52 50 53 56 57 57 57 57 57 55 54 55 57 56 55 52 55 55 53 52 49 45 42
6 8 8 6 6 5 5 5 6 9 10 7 9 9 9 9 10 8 16 20 26 31 34 37 40 42 44 48 52 54 54 55 54 53 53 55 57 58 57 57 55 53 53 55 56 54 53 50 50 48 46 45 45 45
Wind_Direction_500mb
298 299 295 290 291 288 285 282 280 278 276 269 265 262 262 257 254 240 242 240 238 249 260 266 252 245 180 181 158 147 106 186 137 182 167 189 170 212 146 172 175 164 156 190 99 112 268 149 95 177 224 174 172 217
295 296 291 284 287 286 282 279 280 280 276 274 268 264 258 249 244 243 246 246 245 245 244 273 247 252 223 204 179 168 190 157 166 147 178 116 162 144 153 215 133 214 188 178 192 209 285 188 219 215 199 273 246 244
293 293 286 284 278 279 282 285 288 288 278 269 261 260 246 240 239 238 240 249 245 240 251 254 250 253 234 216 195 158 186 163 178 160 155 180 200 137 165 231 169 241 187 229 128 248 238 239 242 250 258 265 277 281
288 288 282 283 276 278 282 291 295 296 279 254 249 239 229 232 236 234 238 235 217 237 260 232 242 235 245 223 223 223 213 177 179 166 132 161 184 194 193 180 172 182 144 193 259 289 283 272 258 254 270 277 280 285
282 281 279 274 277 275 284 295 295 292 269 258 260 225 223 226 233 243 248 237 234 223 265 275 215 224 219 219 225 225 217 186 159 148 151 204 155 136 32 74 237 189 184 183 229 217 212 266 286 292 283 284 287 288
285 272 273 268 272 272 282 292 288 272 279 286 262 243 233 210 244 254 273 240 243 235 234 206 253 204 210 204 205 207 207 203 191 160 183 186 150 164 180 220 243 212 223 229 246 266 265 276 282 281 283 286 288 284
276 274 261 262 258 261 270 278 261 260 273 298 297 264 248 289 277 268 256 238 210 199 209 244 287 174 183 184 189 189 192 190 188 177 172 147 181 180 222 244 249 249 247 253 256 259 270 269 273 288 285 285 282 276
267 258 256 249 246 246 255 257 251 253 247 266 266 266 258 280 299 299 261 211 177 170 178 215 137 203 159 134 115 169 168 158 165 158 128 124 129 143 246 237 236 247 254 264 263 260 261 271 276 276 276 278 277 273
250 243 238 239 233 232 241 237 225 226 248 263 266 274 284 257 265 278 317 170 172 176 167 196 152 174 169 108 127 143 165 162 128 97 149 153 180 221 214 206 241 247 236 255 264 271 272 268 273 279 279 278 277 281
239 222 220 224 220 216 219 205 199 219 234 253 276 253 243 254 297 309 244 175 160 183 204 176 132 148 167 119 103 114 72 114 130 219 142 187 249 240 222 241 260 262 258 266 263 272 274 273 274 277 277 281 277 278
192 202 203 208 203 200 189 183 184 192 216 259 248 254 288 311 309 283 226 169 136 133 164 119 140 128 159 120 111 184 146 154 170 225 144 241 264 239 243 246 259 268 269 269 266 272 276 274 275 278 280 278 275 271
175 189 193 200 186 182 176 176 180 204 199 257 311 287 298 359 343 337 317 327 40 89 88 109 152 113 123 135 106 132 120 69 198 142 120 258 239 245 248 252 259 266 271 275 276 272 275 278 278 278 278 274 269 265
170 187 184 197 171 172 170 172 184 203 231 317 312 306 354 337 33 280 312 337 71 236 158 130 131 115 111 94 82 115 132 124 148 131 221 235 256 259 264 263 268 280 274 265 269 277 285 287 282 281 281 277 269 259
133 173 182 168 161 166 163 163 174 170 104 21 46 339 122 311 263 173 203 254 299 116 125 105 65 111 123 98 135 101 232 127 95 228 232 241 237 270 268 270 290 288 280 279 283 286 295 300 300 288 278 277 262 252
90 143 146 146 152 157 155 157 166 166 56 37 54 236 224 254 303 338 189 2 47 137 120 88 70 72 48 99 57 120 75 212 207 229 233 239 248 265 247 274 286 282 282 286 290 292 295 297 303 309 286 270 260 254
106 112 125 137 146 147 151 152 150 139 25 307 259 307 307 38 321 170 126 128 87 111 137 41 75 68 147 130 112 205 136 210 235 219 229 234 263 236 227 254 298 311 313 311 306 306 308 308 310 312 310 284 263 258
104 113 128 131 139 139 144 143 139 173 209 225 245 230 243 260 245 195 183 154 109 88 89 27 272 236 33 44 133 173 200 219 248 320 233 234 225 251 275 310 324 323 317 317 321 319 321 323 322 324 319 310 294 264
95 113 124 137 144 148 159 174 205 234 235 235 202 231 222 241 258 236 187 180 169 120 112 194 123 140 223 174 265 228 224 281 313 315 147 194 156 288 307 317 323 326 327 329 334 337 345 350 347 355 357 360 10 29
126 132 145 160 180 177 217 214 208 227 229 234 235 237 242 248 251 253 241 223 211 80 88 1 209 205 217 272 302 340 317 301 323 293 288 357 325 290 307 322 334 338 339 352 13 22 31 39 43 45 49 58 70 83
191 202 217 226 220 208 255 233 198 234 227 238 231 207 204 222 242 241 233 224 228 138 127 238 268 258 281 304 314 300 296 290 282 275 278 252 222 314 331 342 351 4 13 37 57 63 71 68 64 62 65 71 78 84
248 245 235 238 241 212 257 263 227 229 224 220 236 201 208 193 182 178 164 170 124 73 309 300 322 326 313 315 315 315 317 293 242 244 235 210 156 7 344 356 31 54 62 70 74 75 73 70 70 73 76 77 82 90
258 240 236 232 222 224 237 233 238 220 221 227 198 201 215 180 130 124 128 68 64 55 340 347 15 11 9 22 11 29 41 46 164 160 164 147 89 74 50 56 64 74 82 79 87 85 83 80 79 82 86 93 98 99
248 249 239 211 216 231 245 213 218 221 224 230 196 211 194 110 115 132 82 74 80 10 15 64 81 68 56 42 71 95 101 108 105 99 92 89 88 82 84 83 79 79 88 92 95 96 91 87 88 90 94 97 97 96
225 229 232 234 207 271 265 219 229 232 246 242 232 193 102 109 143 69 75 50 29 37 74 95 147 118 92 86 77 78 85 91 94 94 92 93 91 88 88 88 89 88 89 93 98 99 101 99 99 100 99 98 98 97
190 250 301 276 341 317 279 281 256 303 283 12 306 25 77 70 80 68 92 347 50 53 70 79 99 124 108 85 78 79 92 107 105 98 88 84 92 97 96 94 92 89 88 98 101 102 101 101 99 97 97 97 98 97
132 16 10 340 313 326 349 297 351 322 309 311 17 327 342 75 67 75 203 144 99 48 57 70 77 92 86 87 87 84 83 93 103 100 98 101 102 103 105 103 99 92 91 94 103 104 104 104 104 102 98 96 97 97
82 344 345 24 322 305 287 317 351 15 36 13 338 325 30 70 71 346 86 42 57 35 61 79 97 95 90 85 81 81 93 105 104 101 103 104 102 101 101 99 97 96 98 103 106 107 108 108 106 104 103 103 101 99
99 15 339 329 9 16 352 27 28 21 331 341 290 28 65 35 89 334 82 46 61 74 82 101 130 120 108 100 90 87 92 97 102 104 104 103 101 99 96 95 94 100 105 106 106 107 107 106 106 106 103 100 99 96
98 351 336 322 82 49 45 17 10 11 328 343 44 70 91 64 49 69 66 75 82 87 91 93 95 109 121 124 116 109 112 117 122 121 109 104 103 98 103 107 110 110 110 108 106 104 104 104 103 101 100 99 98 97
3 353 345 56 59 13 3 21 46 60 65 78 96 107 87 80 64 68 74 84 89 88 88 93 99 113 121 125 116 117 113 113 121 116 115 113 111 111 113 111 111 110 110 110 108 107 104 101 101 100 99 99 97 95
338 348 26 68 97 115 101 86 75 71 75 82 100 99 112 108 71 57 62 70 81 90 97 97 99 103 110 114 118 121 118 114 120 120 113 109 110 113 111 110 109 109 108 106 105 105 106 105 103 102 99 96 93 89
353 19 12 78 110 160 180 54 73 92 77 69 54 67 68 78 70 56 44 63 88 94 93 102 109 105 108 111 112 112 113 115 116 111 110 111 111 110 110 110 111 110 109 107 106 106 104 101 100 96 93 90 87 84
332 23 43 108 118 125 99 134 134 111 71 78 65 61 66 74 88 91 59 66 83 92 99 102 104 109 115 117 116 115 113 112 111 111 112 112 112 112 112 112 112 111 109 107 106 104 100 97 94 92 90 88 87 87
Wind_Speed_850mb
82 80 66 59 56 49 48 46 47 52 60 61 56 58 62 58 61 48 69 50 54 53 46 68 56 28 35 49 15 23 17 6 5 9 7 8 7 14 7 8 14 16 17 9 7 4 20 29 12 15 9 8 8 20
81 77 62 56 52 50 49 54 60 67 70 69 67 67 67 67 61 57 63 58 57 60 46 44 79 71 61 57 59 62 16 23 27 7 4 6 5 3 8 7 6 8 15 13 21 17 4 52 16 50 7 8 10 15
78 75 60 59 55 56 60 65 74 81 85 80 75 72 66 65 63 58 63 58 54 54 64 77 71 59 67 64 44 26 18 28 26 18 10 6 7 8 9 11 9 9 16 6 6 14 33 50 63 68 52 54 55 55
73 70 64 59 56 57 62 66 77 76 60 61 57 56 58 62 63 60 65 63 43 22 14 33 56 82 65 76 56 50 22 50 40 29 7 6 6 16 7 5 8 9 22 11 13 17 41 64 68 60 55 57 55 53
73 69 68 58 58 53 56 62 52 30 19 22 22 34 46 51 51 46 55 76 60 56 9 12 51 67 63 63 82 58 42 54 31 10 5 7 9 8 2 4 6 17 15 12 13 29 19 33 27 30 37 45 47 44
79 72 67 60 56 50 48 47 31 20 21 34 25 22 45 32 31 39 32 89 88 84 39 10 11 39 70 59 50 45 54 55 35 21 8 9 12 17 7 7 12 54 58 61 26 52 57 74 74 61 64 72 69 56
83 81 68 65 52 46 43 30 22 25 20 13 11 18 18 27 23 35 28 30 70 85 33 5 3 11 41 47 39 39 56 30 21 16 9 14 10 16 4 17 10 32 54 69 75 75 68 88 62 61 51 42 40 41
89 81 75 66 54 45 42 36 26 25 19 20 19 20 19 26 38 46 29 31 86 66 27 7 4 8 34 15 11 25 21 18 15 14 13 6 11 5 10 13 54 70 69 90 95 88 98 94 91 99 90 83 75 74
98 83 76 67 58 47 41 33 25 21 20 20 19 22 30 15 15 31 36 62 92 32 12 9 14 9 21 12 15 10 14 6 7 4 4 18 5 13 15 28 56 73 55 78 67 45 51 67 75 87 76 68 67 69
84 79 73 67 60 50 37 32 26 22 17 18 15 9 9 9 31 44 7 14 26 26 10 4 15 6 19 7 4 5 7 5 4 5 17 5 8 18 25 38 69 69 62 79 71 64 72 79 85 93 91 77 75 75
53 62 67 66 61 52 39 34 27 19 14 8 5 7 13 20 17 11 5 4 7 7 11 9 8 12 10 7 6 2 5 5 8 7 9 5 9 14 72 84 100 111 105 99 92 100 100 89 86 85 86 76 72 65
34 45 58 61 66 55 47 37 28 19 4 2 7 13 10 5 5 7 8 5 6 6 5 6 6 14 14 11 8 3 5 3 5 9 4 8 11 58 52 61 77 83 74 73 64 72 71 71 66 65 67 64 65 61
26 37 54 55 70 60 47 38 24 12 4 2 6 6 9 5 6 3 7 4 2 1 12 14 6 12 11 9 8 5 6 5 6 4 8 12 12 29 45 48 40 27 34 44 55 57 58 56 54 58 64 61 57 57
20 37 40 62 61 56 47 33 25 14 4 2 5 10 5 9 6 7 7 5 4 7 23 20 6 5 9 6 5 9 1 4 4 3 14 6 22 36 33 17 24 20 26 28 30 33 37 42 47 46 48 46 44 49
14 18 48 67 55 47 37 32 24 12 4 6 3 6 8 9 5 10 2 3 9 18 24 10 10 7 4 8 6 9 6 7 11 10 8 21 30 25 21 16 13 16 22 26 31 36 37 39 40 38 32 37 36 39
50 47 46 44 39 36 33 29 21 9 1 3 6 6 7 6 6 0 4 6 11 16 14 6 4 3 4 10 8 12 15 12 8 8 26 18 13 6 9 10 12 20 27 31 34 36 35 36 37 37 30 29 37 40
23 37 32 32 29 32 29 21 8 7 8 8 7 25 29 23 15 12 14 4 12 6 3 4 4 5 3 5 4 10 10 7 9 7 11 8 10 8 10 15 21 24 26 29 30 32 32 30 30 30 27 23 20 25
36 29 25 25 28 27 19 11 6 8 10 19 6 16 16 24 17 14 12 10 5 9 8 4 4 5 7 11 8 8 20 11 17 3 5 7 1 5 11 15 19 22 24 24 24 26 25 21 18 19 18 14 8 5
23 22 21 19 20 11 6 13 16 8 27 19 26 32 29 29 40 36 19 14 6 1 10 2 2 7 8 4 5 13 6 8 10 9 6 8 4 6 11 15 19 20 19 17 18 19 21 21 24 25 24 22 21 22
12 15 13 11 11 7 8 10 19 14 6 17 36 30 27 24 41 44 39 36 30 1 6 5 4 2 7 15 21 25 25 23 22 17 8 3 3 4 10 10 12 14 13 14 17 20 19 22 28 32 31 29 24 31
23 24 23 25 21 22 12 12 14 11 10 13 14 24 14 22 24 26 19 35 8 7 1 5 11 17 14 14 15 17 15 12 14 15 8 10 2 5 8 7 10 10 12 19 23 27 29 37 38 35 34 36 33 33
25 19 20 31 21 15 19 21 14 7 9 9 11 19 8 7 9 12 27 13 8 6 4 4 7 11 9 6 7 4 5 3 4 10 14 9 5 6 10 13 14 19 21 25 26 30 34 34 32 34 37 41 40 44
17 15 10 14 16 12 9 12 9 8 5 5 7 6 4 5 13 25 7 9 6 11 7 5 9 14 16 12 10 12 15 18 24 26 25 22 20 21 21 23 24 26 29 30 28 29 32 30 30 34 38 40 42 47
25 10 9 8 15 7 4 7 8 6 7 5 4 4 4 6 22 8 7 5 9 14 9 5 5 10 12 14 22 25 25 27 30 33 34 31 32 34 33 36 36 36 35 33 31 34 35 36 36 39 41 44 48 52
9 5 6 4 4 5 6 4 3 4 5 2 4 2 4 3 6 7 5 1 4 16 19 20 18 17 17 20 25 26 23 22 27 33 37 35 37 38 40 40 40 40 32 31 38 40 44 42 43 45 47 48 51 55
4 8 4 3 5 4 5 5 5 5 5 3 5 8 6 6 9 5 1 1 2 11 16 22 24 26 26 22 22 26 27 27 32 39 38 32 32 33 39 42 44 44 35 30 33 39 44 45 49 53 58 57 57 58
6 6 7 7 7 9 8 6 8 5 8 7 7 9 3 9 7 1 2 8 6 10 15 17 18 26 36 37 36 32 27 27 37 44 42 38 38 37 38 43 48 46 36 31 35 40 49 54 57 59 63 62 61 60
6 8 7 16 6 11 5 6 7 6 5 11 5 14 7 7 4 1 4 8 12 16 17 15 16 23 31 34 33 31 34 39 42 46 47 49 47 46 45 48 48 42 42 43 46 50 53 58 62 66 67 68 63 56
7 14 7 2 7 12 6 7 6 7 14 8 4 6 6 8 9 11 14 16 20 20 18 18 19 22 22 17 13 15 17 20 29 45 54 57 52 50 48 50 50 51 52 56 56 57 61 63 63 63 63 62 60 56
11 22 5 7 9 9 9 13 10 16 21 18 17 28 25 27 35 31 26 25 25 26 26 24 24 22 23 22 27 28 30 32 30 35 55 57 58 53 48 51 54 56 56 58 63 64 60 60 60 60 59 58 54 52
19 12 2 10 7 10 25 30 37 35 23 33 44 33 21 19 37 43 36 29 26 25 29 34 33 32 32 32 32 36 41 38 37 44 54 59 58 55 54 55 57 57 56 56 57 57 58 58 57 56 55 54 51 48
16 11 5 5 4 9 2 5 9 11 8 9 12 11 10 11 12 14 24 22 21 30 34 32 35 41 40 43 46 48 50 52 50 53 56 57 57 57 57 57 55 54 55 57 56 55 52 55 55 53 52 49 45 42
6 8 8 6 6 5 5 5 6 9 10 7 9 9 9 9 10 8 16 20 26 31 34 37 40 42 44 48 52 54 54 55 54 53 53 55 57 58 57 57 55 53 53 55 56 54 53 50 50 48 46 45 45 45
Wind_Direction_850mb
298 299 295 290 291 288 285 282 280 278 276 269 265 262 262 257 254 240 242 240 238 249 260 266 252 245 180 181 158 147 106 186 137 182 167 189 170 212 146 172 175 164 156 190 99 112 268 149 95 177 224 174 172 217
295 296 291 284 287 286 282 279 280 280 276 274 268 264 258 249 244 243 246 246 245 245 244 273 247 252 223 204 179 168 190 157 166 147 178 116 162 144 153 215 133 214 188 178 192 209 285 188 219 215 199 273 246 244
293 293 286 284 278 279 282 285 288 288 278 269 261 260 246 240 239 238 240 249 245 240 251 254 250 253 234 216 195 158 186 163 178 160 155 180 200 137 165 231 169 241 187 229 128 248 238 239 242 250 258 265 277 281
288 288 282 283 276 278 282 291 295 296 279 254 249 239 229 232 236 234 238 235 217 237 260 232 242 235 245 223 223 223 213 177 179 166 132 161 184 194 193 180 172 182 144 193 259 289 283 272 258 254 270 277 280 285
282 281 279 274 277 275 284 295 295 292 269 258 260 225 223 226 233 243 248 237 234 223 265 275 215 224 219 219 225 225 217 186 159 148 151 204 155 136 32 74 237 189 184 183 229 217 212 266 286 292 283 284 287 288
285 272 273 268 272 272 282 292 288 272 279 286 262 243 233 210 244 254 273 240 243 235 234 206 253 204 210 204 205 207 207 203 191 160 183 186 150 164 180 220 243 212 223 229 246 266 265 276 282 281 283 286 288 284
276 274 261 262 258 261 270 278 261 260 273 298 297 264 248 289 277 268 256 238 210 199 209 244 287 174 183 184 189 189 192 190 188 177 172 147 181 180 222 244 249 249 247 253 256 259 270 269 273 288 285 285 282 276
267 258 256 249 246 246 255 257 251 253 247 266 266 266 258 280 299 299 261 211 177 170 178 215 137 203 159 134 115 169 168 158 165 158 128 124 129 143 246 237 236 247 254 264 263 260 261 271 276 276 276 278 277 273
250 243 238 239 233 232 241 237 225 226 248 263 266 274 284 257 265 278 317 170 172 176 167 196 152 174 169 108 127 143 165 162 128 97 149 153 180 221 214 206 241 247 236 255 264 271 272 268 273 279 279 278 277 281
239 222 220 224 220 216 219 205 199 219 234 253 276 253 243 254 297 309 244 175 160 183 204 176 132 148 167 119 103 114 72 114 130 219 142 187 249 240 222 241 260 262 258 266 263 272 274 273 274 277 277 281 277 278
192 202 203 208 203 200 189 183 184 192 216 259 248 254 288 311 309 283 226 169 136 133 164 119 140 128 159 120 111 184 146 154 170 225 144 241 264 239 243 246 259 268 269 269 266 272 276 274 275 278 280 278 275 271
175 189 193 200 186 182 176 176 180 204 199 257 311 287 298 359 343 337 317 327 40 89 88 109 152 113 123 135 106 132 120 69 198 142 120 258 239 245 248 252 259 266 271 275 276 272 275 278 278 278 278 274 269 265
170 187 184 197 171 172 170 172 184 203 231 317 312 306 354 337 33 280 312 337 71 236 158 130 131 115 111 94 82 115 132 124 148 131 221 235 256 259 264 263 268 280 274 265 269 277 285 287 282 281 281 277 269 259
133 173 182 168 161 166 163 163 174 170 104 21 46 339 122 311 263 173 203 254 299 116 125 105 65 111 123 98 135 101 232 127 95 228 232 241 237 270 268 270 290 288 280 279 283 286 295 300 300 288 278 277 262 252
90 143 146 146 152 157 155 157 166 166 56 37 54 236 224 254 303 338 189 2 47 137 120 88 70 72 48 99 57 120 75 212 207 229 233 239 248 265 247 274 286 282 282 286 290 292 295 297 303 309 286 270 260 254
106 112 125 137 146 147 151 152 150 139 25 307 259 307 307 38 321 170 126 128 87 111 137 41 75 68 147 130 112 205 136 210 235 219 229 234 263 236 227 254 298 311 313 311 306 306 308 308 310 312 310 284 263 258
104 113 128 131 139 139 144 143 139 173 209 225 245 230 243 260 245 195 183 154 109 88 89 27 272 236 33 44 133 173 200 219 248 320 233 234 225 251 275 310 324 323 317 317 321 319 321 323 322 324 319 310 294 264
95 113 124 137 144 148 159 174 205 234 235 235 202 231 222 241 258 236 187 180 169 120 112 194 123 140 223 174 265 228 224 281 313 315 147 194 156 288 307 317 323 326 327 329 334 337 345 350 347 355 357 360 10 29
126 132 145 160 180 177 217 214 208 227 229 234 235 237 242 248 251 253 241 223 211 80 88 1 209 205 217 272 302 340 317 301 323 293 288 357 325 290 307 322 334 338 339 352 13 22 31 39 43 45 49 58 70 83
191 202 217 226 220 208 255 233 198 234 227 238 231 207 204 222 242 241 233 224 228 138 127 238 268 258 281 304 314 300 296 290 282 275 278 252 222 314 331 342 351 4 13 37 57 63 71 68 64 62 65 71 78 84
248 245 235 238 241 212 257 263 227 229 224 220 236 201 208 193 182 178 164 170 124 73 309 300 322 326 313 315 315 315 317 293 242 244 235 210 156 7 344 356 31 54 62 70 74 75 73 70 70 73 76 77 82 90
258 240 236 232 222 224 237 233 238 220 221 227 198 201 215 180 130 124 128 68 64 55 340 347 15 11 9 22 11 29 41 46 164 160 164 147 89 74 50 56 64 74 82 79 87 85 83 80 79 82 86 93 98 99
248 249 239 211 216 231 245 213 218 221 224 230 196 211 194 110 115 132 82 74 80 10 15 64 81 68 56 42 71 95 101 108 105 99 92 89 88 82 84 83 79 79 88 92 95 96 91 87 88 90 94 97 97 96
225 229 232 234 207 271 265 219 229 232 246 242 232 193 102 109 143 69 75 50 29 37 74 95 147 118 92 86 77 78 85 91 94 94 92 93 91 88 88 88 89 88 89 93 98 99 101 99 99 100 99 98 98 97
190 250 301 276 341 317 279 281 256 303 283 12 306 25 77 70 80 68 92 347 50 53 70 79 99 124 108 85 78 79 92 107 105 98 88 84 92 97 96 94 92 89 88 98 101 102 101 101 99 97 97 97 98 97
132 16 10 340 313 326 349 297 351 322 309 311 17 327 342 75 67 75 203 144 99 48 57 70 77 92 86 87 87 84 83 93 103 100 98 101 102 103 105 103 99 92 91 94 103 104 104 104 104 102 98 96 97 97
82 344 345 24 322 305 287 317 351 15 36 13 338 325 30 70 71 346 86 42 57 35 61 79 97 95 90 85 81 81 93 105 104 101 103 104 102 101 101 99 97 96 98 103 106 107 108 108 106 104 103 103 101 99
99 15 339 329 9 16 352 27 28 21 331 341 290 28 65 35 89 334 82 46 61 74 82 101 130 120 108 100 90 87 92 97 102 104 104 103 101 99 96 95 94 100 105 106 106 107 107 106 106 106 103 100 99 96
98 351 336 322 82 49 45 17 10 11 328 343 44 70 91 64 49 69 66 75 82 87 91 93 95 109 121 124 116 109 112 117 122 121 109 104 103 98 103 107 110 110 110 108 106 104 104 104 103 101 100 99 98 97
3 353 345 56 59 13 3 21 46 60 65 78 96 107 87 80 64 68 74 84 89 88 88 93 99 113 121 125 116 117 113 113 121 116 115 113 111 111 113 111 111 110 110 110 108 107 104 101 101 100 99 99 97 95
338 348 26 68 97 115 101 86 75 71 75 82 100 99 112 108 71 57 62 70 81 90 97 97 99 103 110 114 118 121 118 114 120 120 113 109 110 113 111 110 109 109 108 106 105 105 106 105 103 102 99 96 93 89
353 19 12 78 110 160 180 54 73 92 77 69 54 67 68 78 70 56 44 63 88 94 93 102 109 105 108 111 112 112 113 115 116 111 110 111 111 110 110 110 111 110 109 107 106 106 104 101 100 96 93 90 87 84
332 23 43 108 118 125 99 134 134 111 71 78 65 61 66 74 88 91 59 66 83 92 99 102 104 109 115 117 116 115 113 112 111 111 112 112 112 112 112 112 112 111 109 107 106 104 100 97 94 92 90 88 87 87